BSAT-4B 1 46112U 20056A 21061.87757611 -.00000359 00000-0 00000-0 0 9997 2 46112 0.0395 200.7294 0001445 239.3896 146.4846 1.00272971 2016 MEV-2 1 46113U 20056B 21060.96365829 -.00000020 00000-0 00000-0 0 9998 2 46113 0.0100 173.2208 0001527 170.0907 162.5464 1.00267768 2647 GALAXY 30 (G-30) 1 46114U 20056C 21062.13021255 .00000028 00000-0 00000+0 0 9998 2 46114 0.0379 354.3368 0001755 357.8188 90.8047 1.00271551 2043 ARIANE 5 DEB [SYLDA] 1 46115U 20056D 21061.43440153 .00010348 00000-0 44842-2 0 9994 2 46115 6.2646 45.1133 7260612 337.3042 2.3616 2.29539278 4544 ARIANE 5 R/B 1 46116U 20056E 21061.41905970 .00001412 00000-0 74021-3 0 9991 2 46116 6.0418 47.4736 7264261 335.0557 2.6210 2.28831556 4551